| time (UTC) | temp C | wind direction | speed KPH | gust KPH | rain 1hr cm | rain 24hr cm | rain mn cm | humidity % | barometer mb |
| 20260506124621 | 11 | 301 | 1.6 | 1.6 | 0.00 | 0.00 | 0.00 | 91 | 1018.4 |
| 20260506124119 | 11 | 300 | 1.6 | 3.2 | 0.00 | 0.00 | 0.00 | 91 | 1018.3 |
| 20260506123616 | 11 | 301 | 0.0 | 0.0 | 0.00 | 0.00 | 0.00 | 91 | 1018.1 |
| 20260506123115 | 11 | 300 | 0.0 | 0.0 | 0.00 | 0.00 | 0.00 | 91 | 1018.2 |
| 20260506122611 | 11 | 300 | 0.0 | 1.6 | 0.00 | 0.00 | 0.00 | 90 | 1018.3 |
| 20260506122109 | 11 | 300 | 0.0 | 0.0 | 0.00 | 0.00 | 0.00 | 90 | 1018.1 |
| 20260506121606 | 12 | 300 | 3.2 | 3.2 | 0.00 | 0.00 | 0.00 | 89 | 1018.1 |
| 20260506121102 | 12 | 300 | 3.2 | 4.8 | 0.00 | 0.00 | 0.00 | 89 | 1017.9 |
| 20260506120601 | 12 | 308 | 1.6 | 3.2 | 0.00 | 0.00 | 0.00 | 89 | 1017.9 |
| 20260506120057 | 12 | 308 | 1.6 | 3.2 | 0.00 | 0.00 | 0.00 | 89 | 1018.0 |
| 20260506115556 | 12 | 308 | 1.6 | 1.6 | 0.00 | 0.00 | 0.00 | 89 | 1017.9 |
| 20260506115054 | 12 | 331 | 1.6 | 1.6 | 0.00 | 0.00 | 0.00 | 89 | 1017.6 |
| 20260506114551 | 12 | 311 | 0.0 | 0.0 | 0.00 | 0.00 | 0.00 | 90 | 1017.8 |
| 20260506114049 | 12 | 312 | 1.6 | 1.6 | 0.00 | 0.00 | 0.00 | 90 | 1018.0 |
| 20260506113547 | 11 | 312 | 1.6 | 1.6 | 0.00 | 0.00 | 0.00 | 90 | 1017.8 |
| 20260506113044 | 11 | 312 | 0.0 | 0.0 | 0.00 | 0.00 | 0.00 | 90 | 1017.9 |
| 20260506112540 | 11 | 316 | 0.0 | 0.0 | 0.00 | 0.00 | 0.00 | 90 | 1017.9 |
| 20260506112038 | 11 | 319 | 0.0 | 0.0 | 0.00 | 0.00 | 0.00 | 90 | 1018.0 |
| 20260506111536 | 11 | 320 | 0.0 | 0.0 | 0.00 | 0.00 | 0.00 | 90 | 1017.9 |
| 20260506111032 | 11 | 320 | 0.0 | 0.0 | 0.00 | 0.00 | 0.00 | 90 | 1018.0 |
| 20260506110530 | 11 | 328 | 0.0 | 0.0 | 0.00 | 0.00 | 0.00 | 90 | 1018.0 |
| 20260506110027 | 11 | 347 | 0.0 | 0.0 | 0.00 | 0.00 | 0.00 | 90 | 1018.0 |
| 20260506105523 | 11 | 309 | 0.0 | 0.0 | 0.00 | 0.00 | 0.00 | 90 | 1018.2 |
| 20260506105021 | 11 | 310 | 1.6 | 1.6 | 0.00 | 0.00 | 0.00 | 90 | 1018.0 |
| 20260506104519 | 12 | 302 | 3.2 | 3.2 | 0.00 | 0.00 | 0.00 | 90 | 1017.8 |
| 20260506104016 | 12 | 309 | 1.6 | 3.2 | 0.00 | 0.00 | 0.00 | 90 | 1018.0 |
| 20260506103513 | 12 | 325 | 3.2 | 3.2 | 0.00 | 0.00 | 0.00 | 90 | 1017.8 |
| 20260506103010 | 12 | 327 | 1.6 | 1.6 | 0.00 | 0.00 | 0.00 | 90 | 1017.8 |
| 20260506102509 | 12 | 328 | 1.6 | 1.6 | 0.00 | 0.00 | 0.00 | 90 | 1017.7 |
| 20260506102005 | 12 | 349 | 1.6 | 1.6 | 0.00 | 0.00 | 0.00 | 90 | 1017.6 |
| 20260506101502 | 12 | 11 | 1.6 | 1.6 | 0.00 | 0.00 | 0.00 | 89 | 1017.8 |
| 20260506100959 | 12 | 0 | 3.2 | 3.2 | 0.00 | 0.00 | 0.00 | 89 | 1017.6 |
| 20260506100457 | 12 | 11 | 1.6 | 1.6 | 0.00 | 0.00 | 0.00 | 89 | 1017.6 |
| 20260506095955 | 12 | 4 | 4.8 | 4.8 | 0.00 | 0.00 | 0.00 | 89 | 1017.8 |
| 20260506095453 | 12 | 11 | 1.6 | 3.2 | 0.00 | 0.00 | 0.00 | 89 | 1017.8 |
| 20260506094943 | 12 | 10 | 3.2 | 3.2 | 0.00 | 0.00 | 0.00 | 88 | 1017.5 |
| 20260506094441 | 12 | 11 | 3.2 | 3.2 | 0.00 | 0.00 | 0.00 | 88 | 1017.8 |
| 20260506093939 | 12 | 334 | 6.4 | 8.0 | 0.00 | 0.00 | 0.00 | 87 | 1017.7 |
| 20260506093437 | 12 | 12 | 3.2 | 3.2 | 0.00 | 0.00 | 0.00 | 87 | 1017.5 |
| 20260506092934 | 12 | 7 | 4.8 | 4.8 | 0.00 | 0.00 | 0.00 | 87 | 1017.5 |
| 20260506092432 | 12 | 305 | 1.6 | 1.6 | 0.00 | 0.00 | 0.00 | 87 | 1017.3 |
| 20260506091928 | 12 | 308 | 0.0 | 1.6 | 0.00 | 0.00 | 0.00 | 87 | 1017.4 |
| 20260506091427 | 12 | 308 | 1.6 | 1.6 | 0.00 | 0.00 | 0.00 | 87 | 1017.1 |
| 20260506090923 | 12 | 298 | 4.8 | 4.8 | 0.00 | 0.00 | 0.00 | 87 | 1017.4 |
| 20260506090421 | 12 | 296 | 1.6 | 3.2 | 0.00 | 0.00 | 0.00 | 87 | 1017.1 |
| 20260506085918 | 12 | 322 | 4.8 | 4.8 | 0.00 | 0.00 | 0.00 | 87 | 1016.9 |
| 20260506085414 | 12 | 299 | 3.2 | 3.2 | 0.00 | 0.00 | 0.00 | 88 | 1016.8 |
| 20260506084910 | 12 | 304 | 3.2 | 3.2 | 0.00 | 0.00 | 0.00 | 88 | 1017.2 |
| 20260506084407 | 12 | 304 | 1.6 | 1.6 | 0.00 | 0.00 | 0.00 | 89 | 1017.4 |
| 20260506083903 | 12 | 292 | 0.0 | 0.0 | 0.00 | 0.00 | 0.00 | 89 | 1017.4 |
| 20260506083401 | 12 | 345 | 1.6 | 1.6 | 0.00 | 0.00 | 0.00 | 89 | 1017.3 |
| 20260506082858 | 12 | 10 | 3.2 | 3.2 | 0.00 | 0.00 | 0.00 | 89 | 1017.6 |
| 20260506082355 | 12 | 11 | 3.2 | 3.2 | 0.00 | 0.00 | 0.00 | 89 | 1017.9 |
| 20260506081851 | 12 | 12 | 3.2 | 3.2 | 0.00 | 0.00 | 0.00 | 89 | 1018.0 |
| 20260506081349 | 12 | 11 | 4.8 | 8.0 | 0.00 | 0.00 | 0.00 | 89 | 1018.2 |
| 20260506080846 | 12 | 0 | 4.8 | 4.8 | 0.00 | 0.00 | 0.00 | 89 | 1017.9 |
| 20260506080343 | 12 | 11 | 4.8 | 4.8 | 0.00 | 0.00 | 0.00 | 88 | 1017.9 |
| 20260506073322 | 13 | 3 | 1.6 | 1.6 | 0.00 | 0.00 | 0.00 | 87 | 1017.4 |
| 20260506072819 | 13 | 337 | 3.2 | 3.2 | 0.00 | 0.00 | 0.00 | 87 | 1017.5 |
| 20260506072316 | 13 | 337 | 1.6 | 3.2 | 0.00 | 0.00 | 0.00 | 86 | 1017.5 |
| 20260506071813 | 13 | 337 | 3.2 | 3.2 | 0.00 | 0.00 | 0.00 | 86 | 1017.4 |
| 20260506071312 | 13 | 326 | 3.2 | 3.2 | 0.00 | 0.00 | 0.00 | 86 | 1017.3 |
| 20260506070808 | 13 | 321 | 1.6 | 1.6 | 0.00 | 0.00 | 0.00 | 86 | 1017.2 |
| 20260506070305 | 13 | 320 | 0.0 | 0.0 | 0.00 | 0.00 | 0.00 | 85 | 1017.1 |
| 20260506062242 | 14 | 295 | 0.0 | 0.0 | 0.00 | 0.00 | 0.00 | 83 | 1016.7 |
| 20260506061737 | 14 | 294 | 0.0 | 0.0 | 0.00 | 0.00 | 0.00 | 83 | 1016.6 |
| 20260506061235 | 14 | 294 | 0.0 | 0.0 | 0.00 | 0.00 | 0.00 | 83 | 1016.4 |
| 20260506060733 | 14 | 294 | 0.0 | 0.0 | 0.00 | 0.00 | 0.00 | 83 | 1016.6 |
| 20260506060230 | 14 | 294 | 1.6 | 1.6 | 0.00 | 0.00 | 0.00 | 83 | 1016.4 |
| 20260506051157 | 15 | 296 | 1.6 | 1.6 | 0.00 | 0.00 | 0.00 | 81 | 1016.5 |
| 20260506050655 | 15 | 295 | 1.6 | 3.2 | 0.00 | 0.00 | 0.00 | 80 | 1016.3 |
| 20260506050152 | 15 | 295 | 1.6 | 1.6 | 0.00 | 0.00 | 0.00 | 80 | 1016.2 |
| 20260506044643 | 15 | 303 | 3.2 | 3.2 | 0.00 | 0.00 | 0.00 | 78 | 1016.1 |
| 20260506044140 | 15 | 295 | 0.0 | 0.0 | 0.00 | 0.00 | 0.00 | 78 | 1015.8 |
| 20260506043637 | 15 | 295 | 0.0 | 1.6 | 0.00 | 0.00 | 0.00 | 77 | 1015.8 |
| 20260506043135 | 15 | 295 | 1.6 | 3.2 | 0.00 | 0.00 | 0.00 | 77 | 1016.1 |
| 20260506042634 | 16 | 295 | 1.6 | 1.6 | 0.00 | 0.00 | 0.00 | 76 | 1015.9 |
| 20260506042131 | 16 | 295 | 1.6 | 1.6 | 0.00 | 0.00 | 0.00 | 76 | 1016.0 |
| 20260506041630 | 16 | 294 | 1.6 | 3.2 | 0.00 | 0.00 | 0.00 | 75 | 1015.7 |
| 20260506041126 | 16 | 294 | 1.6 | 1.6 | 0.00 | 0.00 | 0.00 | 75 | 1015.5 |
| 20260506040624 | 16 | 295 | 0.0 | 0.0 | 0.00 | 0.00 | 0.00 | 74 | 1015.7 |
| 20260506040120 | 16 | 295 | 1.6 | 3.2 | 0.00 | 0.00 | 0.00 | 74 | 1015.9 |
| 20260506035617 | 16 | 296 | 1.6 | 1.6 | 0.00 | 0.00 | 0.00 | 73 | 1015.5 |
| 20260506035114 | 16 | 294 | 3.2 | 3.2 | 0.00 | 0.00 | 0.00 | 73 | 1015.4 |
| 20260506034611 | 16 | 305 | 1.6 | 1.6 | 0.00 | 0.00 | 0.00 | 73 | 1015.4 |
| 20260506034108 | 16 | 294 | 1.6 | 1.6 | 0.00 | 0.00 | 0.00 | 72 | 1015.2 |
| 20260506033605 | 16 | 294 | 3.2 | 3.2 | 0.00 | 0.00 | 0.00 | 72 | 1015.2 |
| 20260506033102 | 16 | 294 | 4.8 | 4.8 | 0.00 | 0.00 | 0.00 | 72 | 1015.2 |
| 20260506032600 | 16 | 290 | 3.2 | 3.2 | 0.00 | 0.00 | 0.00 | 72 | 1014.9 |
| 20260506032056 | 16 | 294 | 3.2 | 4.8 | 0.00 | 0.00 | 0.00 | 71 | 1015.0 |
| 20260506031554 | 17 | 290 | 3.2 | 4.8 | 0.00 | 0.00 | 0.00 | 71 | 1014.8 |
| 20260506031050 | 17 | 294 | 1.6 | 3.2 | 0.00 | 0.00 | 0.00 | 70 | 1014.9 |
| 20260506030549 | 17 | 323 | 1.6 | 3.2 | 0.00 | 0.00 | 0.00 | 70 | 1014.6 |
| 20260506030046 | 17 | 321 | 3.2 | 3.2 | 0.00 | 0.00 | 0.00 | 69 | 1014.8 |
| 20260506025543 | 17 | 302 | 3.2 | 3.2 | 0.00 | 0.00 | 0.00 | 69 | 1014.5 |
| 20260506025038 | 17 | 4 | 3.2 | 3.2 | 0.00 | 0.00 | 0.00 | 69 | 1014.7 |
| 20260506024536 | 17 | 3 | 4.8 | 4.8 | 0.00 | 0.00 | 0.00 | 68 | 1014.4 |
| 20260506024032 | 17 | 302 | 6.4 | 9.7 | 0.00 | 0.00 | 0.00 | 67 | 1014.6 |
| 20260506023528 | 17 | 324 | 4.8 | 4.8 | 0.00 | 0.00 | 0.00 | 67 | 1014.4 |
| 20260506023026 | 17 | 321 | 4.8 | 9.7 | 0.00 | 0.00 | 0.00 | 67 | 1014.4 |
| 20260506022523 | 18 | 353 | 4.8 | 8.0 | 0.00 | 0.00 | 0.00 | 67 | 1014.4 |
| 20260506022021 | 18 | 324 | 6.4 | 9.7 | 0.00 | 0.00 | 0.00 | 66 | 1014.4 |
| 20260506021518 | 18 | 352 | 4.8 | 4.8 | 0.00 | 0.00 | 0.00 | 66 | 1014.4 |
| 20260506021015 | 18 | 331 | 3.2 | 3.2 | 0.00 | 0.00 | 0.00 | 64 | 1014.2 |
| 20260506020513 | 18 | 346 | 3.2 | 4.8 | 0.00 | 0.00 | 0.00 | 64 | 1014.5 |
| 20260506020010 | 18 | 336 | 8.0 | 9.7 | 0.00 | 0.00 | 0.00 | 65 | 1014.2 |
| 20260506015507 | 18 | 323 | 1.6 | 1.6 | 0.00 | 0.00 | 0.00 | 65 | 1014.1 |
| 20260506015004 | 18 | 316 | 6.4 | 11.3 | 0.00 | 0.00 | 0.00 | 64 | 1014.1 |
| 20260506014502 | 19 | 294 | 3.2 | 3.2 | 0.00 | 0.00 | 0.00 | 63 | 1014.5 |
| 20260506013957 | 19 | 293 | 11.3 | 12.9 | 0.00 | 0.00 | 0.00 | 62 | 1014.4 |
| 20260506013455 | 19 | 3 | 4.8 | 8.0 | 0.00 | 0.00 | 0.00 | 63 | 1014.1 |
| 20260506012951 | 18 | 330 | 3.2 | 3.2 | 0.00 | 0.00 | 0.00 | 64 | 1014.5 |
| 20260506012448 | 19 | 304 | 11.3 | 14.5 | 0.00 | 0.00 | 0.00 | 63 | 1014.2 |
| 20260506011945 | 20 | 312 | 6.4 | 11.3 | 0.00 | 0.00 | 0.00 | 62 | 1014.4 |
| 20260506011442 | 20 | 340 | 3.2 | 3.2 | 0.00 | 0.00 | 0.00 | 62 | 1014.4 |
| 20260506010939 | 20 | 324 | 4.8 | 11.3 | 0.00 | 0.00 | 0.00 | 62 | 1014.4 |
| 20260506010438 | 19 | 315 | 3.2 | 3.2 | 0.00 | 0.00 | 0.00 | 63 | 1014.2 |
| 20260506005933 | 18 | 292 | 6.4 | 8.0 | 0.00 | 0.00 | 0.00 | 65 | 1014.2 |
| 20260506005432 | 20 | 297 | 11.3 | 14.5 | 0.00 | 0.00 | 0.00 | 61 | 1014.1 |
| 20260506004926 | 20 | 301 | 6.4 | 8.0 | 0.00 | 0.00 | 0.00 | 61 | 1014.5 |
| 20260506004425 | 19 | 335 | 4.8 | 4.8 | 0.00 | 0.00 | 0.00 | 62 | 1014.6 |
| 20260506003920 | 20 | 280 | 6.4 | 9.7 | 0.00 | 0.00 | 0.00 | 61 | 1014.2 |
| 20260506003417 | 19 | 274 | 6.4 | 8.0 | 0.00 | 0.00 | 0.00 | 62 | 1014.5 |
| 20260506002914 | 19 | 302 | 6.4 | 11.3 | 0.00 | 0.00 | 0.00 | 61 | 1014.2 |
| 20260506002410 | 19 | 291 | 9.7 | 12.9 | 0.00 | 0.00 | 0.00 | 62 | 1014.0 |
| 20260506001905 | 19 | 303 | 9.7 | 11.3 | 0.00 | 0.00 | 0.00 | 61 | 1014.4 |
| 20260506001403 | 19 | 302 | 9.7 | 11.3 | 0.00 | 0.00 | 0.00 | 61 | 1014.4 |
| 20260506000900 | 19 | 329 | 11.3 | 16.1 | 0.00 | 0.00 | 0.00 | 61 | 1014.2 |
| 20260506000358 | 20 | 287 | 8.0 | 9.7 | 0.00 | 0.00 | 0.00 | 61 | 1014.2 |
| 20260505235854 | 19 | 282 | 8.0 | 11.3 | 0.00 | 0.00 | 0.00 | 60 | 1014.2 |
| 20260505235352 | 20 | 302 | 9.7 | 12.9 | 0.00 | 0.00 | 0.00 | 61 | 1014.1 |
| 20260505234848 | 20 | 275 | 3.2 | 4.8 | 0.00 | 0.00 | 0.00 | 61 | 1013.9 |
| 20260505234346 | 19 | 309 | 8.0 | 9.7 | 0.00 | 0.00 | 0.00 | 63 | 1014.1 |
| 20260505233843 | 20 | 288 | 11.3 | 12.9 | 0.00 | 0.00 | 0.00 | 61 | 1014.1 |
| 20260505233341 | 19 | 285 | 4.8 | 4.8 | 0.00 | 0.00 | 0.00 | 63 | 1014.2 |
| 20260505232838 | 19 | 283 | 11.3 | 12.9 | 0.00 | 0.00 | 0.00 | 63 | 1014.2 |
| 20260505232336 | 20 | 306 | 11.3 | 14.5 | 0.00 | 0.00 | 0.00 | 61 | 1014.1 |
| 20260505231832 | 19 | 298 | 9.7 | 14.5 | 0.00 | 0.00 | 0.00 | 61 | 1014.2 |
| 20260505231330 | 20 | 292 | 8.0 | 9.7 | 0.00 | 0.00 | 0.00 | 61 | 1014.2 |
| 20260505230828 | 19 | 300 | 6.4 | 8.0 | 0.00 | 0.00 | 0.00 | 63 | 1014.0 |
| 20260505230325 | 18 | 256 | 9.7 | 11.3 | 0.00 | 0.00 | 0.00 | 62 | 1014.2 |
| 20260505225821 | 19 | 308 | 14.5 | 17.7 | 0.00 | 0.00 | 0.00 | 63 | 1014.0 |
| 20260505225319 | 18 | 321 | 11.3 | 14.5 | 0.00 | 0.00 | 0.00 | 63 | 1014.2 |
| 20260505224813 | 18 | 272 | 8.0 | 9.7 | 0.00 | 0.00 | 0.00 | 64 | 1014.2 |
| 20260505224312 | 18 | 283 | 4.8 | 8.0 | 0.00 | 0.00 | 0.00 | 63 | 1014.2 |
| 20260505223808 | 18 | 308 | 8.0 | 9.7 | 0.00 | 0.00 | 0.00 | 64 | 1014.2 |
| 20260505223306 | 18 | 292 | 14.5 | 16.1 | 0.00 | 0.00 | 0.00 | 64 | 1014.5 |
| 20260505222801 | 18 | 283 | 16.1 | 22.5 | 0.00 | 0.00 | 0.00 | 64 | 1014.2 |
| 20260505222257 | 18 | 347 | 6.4 | 9.7 | 0.00 | 0.00 | 0.00 | 64 | 1014.5 |
| 20260505221755 | 18 | 344 | 8.0 | 11.3 | 0.00 | 0.00 | 0.00 | 63 | 1014.4 |
| 20260505221251 | 18 | 281 | 9.7 | 12.9 | 0.00 | 0.00 | 0.00 | 66 | 1014.4 |
| 20260505220748 | 18 | 287 | 6.4 | 8.0 | 0.00 | 0.00 | 0.00 | 63 | 1014.5 |
| 20260505220245 | 18 | 313 | 8.0 | 12.9 | 0.00 | 0.00 | 0.00 | 64 | 1014.5 |
| 20260505215744 | 19 | 286 | 9.7 | 12.9 | 0.00 | 0.00 | 0.00 | 61 | 1014.4 |
| 20260505215241 | 18 | 304 | 12.9 | 14.5 | 0.00 | 0.00 | 0.00 | 63 | 1014.5 |
| 20260505214739 | 18 | 280 | 11.3 | 12.9 | 0.00 | 0.00 | 0.00 | 64 | 1014.6 |
| 20260505214236 | 18 | 340 | 4.8 | 4.8 | 0.00 | 0.00 | 0.00 | 63 | 1014.5 |
| 20260505213733 | 18 | 312 | 6.4 | 9.7 | 0.00 | 0.00 | 0.00 | 64 | 1014.2 |
| 20260505213230 | 18 | 288 | 11.3 | 12.9 | 0.00 | 0.00 | 0.00 | 64 | 1014.5 |
| 20260505212726 | 17 | 275 | 11.3 | 14.5 | 0.00 | 0.00 | 0.00 | 65 | 1014.7 |
| 20260505212224 | 17 | 308 | 9.7 | 12.9 | 0.00 | 0.00 | 0.00 | 65 | 1014.5 |
| 20260505211721 | 18 | 310 | 8.0 | 9.7 | 0.00 | 0.00 | 0.00 | 65 | 1014.5 |
| 20260505211218 | 17 | 286 | 11.3 | 16.1 | 0.00 | 0.00 | 0.00 | 65 | 1014.5 |
| 20260505210714 | 18 | 313 | 8.0 | 11.3 | 0.00 | 0.00 | 0.00 | 63 | 1014.7 |
| 20260505210211 | 18 | 304 | 4.8 | 4.8 | 0.00 | 0.00 | 0.00 | 64 | 1014.8 |
| 20260505205709 | 17 | 288 | 4.8 | 4.8 | 0.00 | 0.00 | 0.00 | 66 | 1014.7 |
| 20260505205207 | 17 | 286 | 9.7 | 11.3 | 0.00 | 0.00 | 0.00 | 65 | 1014.9 |
| 20260505204703 | 18 | 307 | 12.9 | 16.1 | 0.00 | 0.00 | 0.00 | 63 | 1014.8 |
| 20260505204201 | 17 | 299 | 11.3 | 12.9 | 0.00 | 0.00 | 0.00 | 64 | 1014.8 |
| 20260505203658 | 17 | 306 | 6.4 | 9.7 | 0.00 | 0.00 | 0.00 | 67 | 1014.9 |
| 20260505203154 | 18 | 349 | 6.4 | 8.0 | 0.00 | 0.00 | 0.00 | 63 | 1014.8 |
| 20260505202650 | 18 | 304 | 8.0 | 9.7 | 0.00 | 0.00 | 0.00 | 63 | 1014.8 |
| 20260505202147 | 17 | 12 | 4.8 | 8.0 | 0.00 | 0.00 | 0.00 | 64 | 1014.7 |
| 20260505201643 | 17 | 283 | 8.0 | 12.9 | 0.00 | 0.00 | 0.00 | 64 | 1015.0 |
| 20260505201141 | 17 | 350 | 9.7 | 12.9 | 0.00 | 0.00 | 0.00 | 64 | 1015.0 |
| 20260505200639 | 17 | 297 | 8.0 | 9.7 | 0.00 | 0.00 | 0.00 | 65 | 1014.9 |
| 20260505200136 | 17 | 299 | 8.0 | 11.3 | 0.00 | 0.00 | 0.00 | 64 | 1014.9 |
| 20260505195632 | 17 | 334 | 4.8 | 8.0 | 0.00 | 0.00 | 0.00 | 64 | 1015.0 |
| 20260505195129 | 17 | 296 | 8.0 | 9.7 | 0.00 | 0.00 | 0.00 | 67 | 1015.1 |
| 20260505194626 | 17 | 317 | 9.7 | 12.9 | 0.00 | 0.00 | 0.00 | 67 | 1014.9 |
| 20260505194122 | 17 | 303 | 4.8 | 8.0 | 0.00 | 0.00 | 0.00 | 68 | 1015.1 |
| 20260505193619 | 16 | 315 | 8.0 | 9.7 | 0.00 | 0.00 | 0.00 | 69 | 1015.3 |
| 20260505193116 | 16 | 324 | 8.0 | 9.7 | 0.00 | 0.00 | 0.00 | 67 | 1015.1 |
| 20260505192615 | 16 | 329 | 9.7 | 14.5 | 0.00 | 0.00 | 0.00 | 67 | 1015.2 |
| 20260505192112 | 16 | 284 | 8.0 | 9.7 | 0.00 | 0.00 | 0.00 | 70 | 1015.2 |
| 20260505191610 | 16 | 284 | 6.4 | 9.7 | 0.00 | 0.00 | 0.00 | 69 | 1015.0 |
| 20260505191107 | 16 | 308 | 3.2 | 3.2 | 0.00 | 0.00 | 0.00 | 68 | 1015.1 |
| 20260505190603 | 16 | 272 | 4.8 | 4.8 | 0.00 | 0.00 | 0.00 | 68 | 1015.3 |
| 20260505190058 | 16 | 316 | 9.7 | 11.3 | 0.00 | 0.00 | 0.00 | 69 | 1015.2 |
| 20260505185555 | 16 | 357 | 6.4 | 8.0 | 0.00 | 0.00 | 0.00 | 68 | 1015.1 |
| 20260505185051 | 16 | 14 | 11.3 | 14.5 | 0.00 | 0.00 | 0.00 | 68 | 1015.2 |
| 20260505184548 | 16 | 309 | 11.3 | 12.9 | 0.00 | 0.00 | 0.00 | 70 | 1015.2 |
| 20260505184045 | 16 | 296 | 12.9 | 12.9 | 0.00 | 0.00 | 0.00 | 68 | 1014.9 |
| 20260505183542 | 16 | 293 | 4.8 | 8.0 | 0.00 | 0.00 | 0.00 | 69 | 1014.8 |
| 20260505183039 | 15 | 335 | 9.7 | 11.3 | 0.00 | 0.00 | 0.00 | 68 | 1015.0 |
| 20260505182535 | 15 | 284 | 11.3 | 12.9 | 0.00 | 0.00 | 0.00 | 69 | 1015.2 |
| 20260505182032 | 15 | 325 | 3.2 | 3.2 | 0.00 | 0.00 | 0.00 | 71 | 1015.0 |
| 20260505181529 | 16 | 296 | 11.3 | 14.5 | 0.00 | 0.00 | 0.00 | 70 | 1014.9 |
| 20260505181026 | 15 | 308 | 16.1 | 17.7 | 0.00 | 0.00 | 0.00 | 71 | 1014.9 |
| 20260505180522 | 15 | 295 | 9.7 | 11.3 | 0.00 | 0.00 | 0.00 | 71 | 1014.7 |
| 20260505180020 | 15 | 305 | 11.3 | 14.5 | 0.00 | 0.00 | 0.00 | 71 | 1014.8 |
| 20260505175514 | 15 | 289 | 8.0 | 9.7 | 0.00 | 0.00 | 0.00 | 72 | 1014.9 |
| 20260505175012 | 15 | 342 | 3.2 | 4.8 | 0.00 | 0.00 | 0.00 | 74 | 1014.9 |
| 20260505174509 | 15 | 315 | 4.8 | 4.8 | 0.00 | 0.00 | 0.00 | 74 | 1014.8 |
| 20260505174005 | 15 | 290 | 3.2 | 3.2 | 0.00 | 0.00 | 0.00 | 75 | 1014.8 |
| 20260505173501 | 15 | 358 | 4.8 | 4.8 | 0.00 | 0.00 | 0.00 | 74 | 1014.9 |
| 20260505172958 | 14 | 285 | 14.5 | 14.5 | 0.00 | 0.00 | 0.00 | 76 | 1014.7 |
| 20260505172456 | 14 | 291 | 12.9 | 16.1 | 0.00 | 0.00 | 0.00 | 76 | 1014.6 |
| 20260505171951 | 14 | 292 | 8.0 | 9.7 | 0.00 | 0.00 | 0.00 | 77 | 1014.7 |
| 20260505171447 | 14 | 332 | 4.8 | 4.8 | 0.00 | 0.00 | 0.00 | 76 | 1014.7 |
| 20260505170944 | 14 | 351 | 4.8 | 8.0 | 0.00 | 0.00 | 0.00 | 76 | 1014.8 |
| 20260505170441 | 15 | 358 | 3.2 | 4.8 | 0.00 | 0.00 | 0.00 | 75 | 1014.7 |
| 20260505165936 | 15 | 336 | 4.8 | 4.8 | 0.00 | 0.00 | 0.00 | 75 | 1014.9 |
| 20260505165432 | 15 | 293 | 8.0 | 9.7 | 0.00 | 0.00 | 0.00 | 76 | 1014.9 |
| 20260505164928 | 15 | 329 | 4.8 | 4.8 | 0.00 | 0.00 | 0.00 | 78 | 1014.6 |
| 20260505164425 | 14 | 306 | 3.2 | 4.8 | 0.00 | 0.00 | 0.00 | 79 | 1014.6 |
| 20260505163923 | 14 | 336 | 1.6 | 3.2 | 0.00 | 0.00 | 0.00 | 80 | 1014.5 |
| 20260505163422 | 14 | 9 | 6.4 | 8.0 | 0.00 | 0.00 | 0.00 | 78 | 1014.4 |
| 20260505162920 | 14 | 330 | 8.0 | 9.7 | 0.00 | 0.00 | 0.00 | 78 | 1014.6 |
| 20260505162415 | 13 | 341 | 4.8 | 8.0 | 0.00 | 0.00 | 0.00 | 78 | 1014.4 |
| 20260505161913 | 13 | 337 | 4.8 | 8.0 | 0.00 | 0.00 | 0.00 | 78 | 1014.5 |
| 20260505161409 | 13 | 284 | 9.7 | 11.3 | 0.00 | 0.00 | 0.00 | 80 | 1014.6 |
| 20260505160907 | 13 | 295 | 9.7 | 11.3 | 0.00 | 0.00 | 0.00 | 80 | 1014.1 |
| 20260505160405 | 13 | 316 | 4.8 | 4.8 | 0.00 | 0.00 | 0.00 | 80 | 1014.2 |
| 20260505153343 | 12 | 333 | 3.2 | 3.2 | 0.00 | 0.00 | 0.00 | 82 | 1014.2 |
| 20260505152840 | 12 | 350 | 4.8 | 8.0 | 0.00 | 0.00 | 0.00 | 82 | 1014.1 |
| 20260505152337 | 12 | 308 | 3.2 | 3.2 | 0.00 | 0.00 | 0.00 | 83 | 1014.1 |
| 20260505151832 | 12 | 330 | 1.6 | 1.6 | 0.00 | 0.00 | 0.00 | 83 | 1014.1 |
| 20260505151328 | 12 | 345 | 3.2 | 3.2 | 0.00 | 0.00 | 0.00 | 83 | 1014.0 |
| 20260505150825 | 12 | 303 | 3.2 | 3.2 | 0.00 | 0.00 | 0.00 | 83 | 1014.0 |
| 20260505150322 | 12 | 337 | 1.6 | 1.6 | 0.00 | 0.00 | 0.00 | 84 | 1013.9 |
| 20260505140247 | 12 | 359 | 4.8 | 4.8 | 0.00 | 0.00 | 0.00 | 86 | 1013.5 |
| 20260505130211 | 12 | 300 | 4.8 | 4.8 | 0.00 | 0.00 | 0.00 | 86 | 1013.3 |